Time,TemperatureF,DewpointF,PressureIn,WindDirection,WindDirectionDegrees,WindSpeedMPH,WindSpeedGustMPH,Humidity,HourlyPrecipIn,Conditions,Clouds,dailyrainin,SoftwareType,DateUTC
2015-07-28 00:04:00,75.0,69.0,-100.00,North,10,0.0,2.0,83,-99.99,,,-99.99,,2015-07-28 04:04:00,
2015-07-28 00:23:00,75.0,69.0,-100.00,North,10,0.0,2.0,81,-99.99,,,-99.99,,2015-07-28 04:23:00,
2015-07-28 00:34:00,75.0,69.0,-100.00,North,5,0.0,2.0,81,-99.99,,,-99.99,,2015-07-28 04:34:00,
2015-07-28 00:43:00,75.0,69.0,-100.00,NNE,15,1.0,5.0,81,-99.99,,,-99.99,,2015-07-28 04:43:00,
2015-07-28 00:53:00,75.0,69.0,-100.00,NNE,15,0.0,3.0,82,-99.99,,,-99.99,,2015-07-28 04:53:00,
2015-07-28 01:04:00,74.0,69.0,-100.00,NNW,345,1.0,4.0,83,-99.99,,,-99.99,,2015-07-28 05:04:00,
2015-07-28 01:14:00,73.0,69.0,-100.00,North,10,0.0,-999.0,86,-99.99,,,-99.99,,2015-07-28 05:14:00,
2015-07-28 01:23:00,74.0,69.0,-100.00,NNW,345,1.0,3.0,84,-99.99,,,-99.99,,2015-07-28 05:23:00,
2015-07-28 01:33:00,74.0,69.0,-100.00,NNE,15,1.0,2.0,83,-99.99,,,-99.99,,2015-07-28 05:33:00,
2015-07-28 01:44:00,74.0,69.0,-100.00,NE,40,0.0,2.0,82,-99.99,,,-99.99,,2015-07-28 05:44:00,
2015-07-28 01:53:00,74.0,69.0,-100.00,NNE,20,0.0,1.0,83,-99.99,,,-99.99,,2015-07-28 05:53:00,
2015-07-28 02:04:00,74.0,69.0,-100.00,NE,35,0.0,2.0,83,-99.99,,,-99.99,,2015-07-28 06:04:00,
2015-07-28 02:13:00,74.0,69.0,-100.00,ENE,65,0.0,2.0,84,-99.99,,,-99.99,,2015-07-28 06:13:00,
2015-07-28 02:24:00,74.0,69.0,-100.00,ENE,60,0.0,1.0,85,-99.99,,,-99.99,,2015-07-28 06:24:00,
2015-07-28 02:34:00,74.0,69.0,-100.00,NE,40,1.0,2.0,84,-99.99,,,-99.99,,2015-07-28 06:34:00,
2015-07-28 02:44:00,74.0,69.0,-100.00,NE,35,0.0,2.0,84,-99.99,,,-99.99,,2015-07-28 06:44:00,
2015-07-28 03:03:00,74.0,69.0,-100.00,SE,130,0.0,2.0,85,-99.99,,,-99.99,,2015-07-28 07:03:00,
2015-07-28 03:13:00,72.0,69.0,-100.00,NNW,330,1.0,3.0,88,-99.99,,,-99.99,,2015-07-28 07:13:00,
2015-07-28 03:23:00,72.0,69.0,-100.00,NNW,330,1.0,3.0,88,-99.99,,,-99.99,,2015-07-28 07:23:00,
2015-07-28 03:33:00,73.0,69.0,-100.00,North,0,2.0,4.0,86,-99.99,,,-99.99,,2015-07-28 07:33:00,
2015-07-28 03:44:00,73.0,69.0,-100.00,North,0,2.0,4.0,86,-99.99,,,-99.99,,2015-07-28 07:44:00,
2015-07-28 03:53:00,72.0,69.0,-100.00,North,355,2.0,4.0,89,-99.99,,,-99.99,,2015-07-28 07:53:00,
2015-07-28 04:03:00,72.0,69.0,-100.00,North,355,4.0,6.0,89,-99.99,,,-99.99,,2015-07-28 08:03:00,
2015-07-28 04:13:00,71.0,68.0,-100.00,NNW,345,4.0,6.0,90,-99.99,,,-99.99,,2015-07-28 08:13:00,
2015-07-28 04:23:00,71.0,68.0,-100.00,NNW,340,4.0,6.0,90,-99.99,,,-99.99,,2015-07-28 08:23:00,
2015-07-28 04:34:00,71.0,68.0,-100.00,North,355,4.0,7.0,88,-99.99,,,-99.99,,2015-07-28 08:34:00,
2015-07-28 04:44:00,71.0,68.0,-100.00,North,355,4.0,7.0,88,-99.99,,,-99.99,,2015-07-28 08:44:00,
2015-07-28 04:53:00,71.0,67.0,-100.00,NNW,345,4.0,7.0,89,-99.99,,,-99.99,,2015-07-28 08:53:00,
2015-07-28 05:03:00,70.0,67.0,-100.00,North,350,4.0,6.0,88,-99.99,,,-99.99,,2015-07-28 09:03:00,
2015-07-28 05:13:00,71.0,67.0,-100.00,NNE,30,1.0,6.0,88,-99.99,,,-99.99,,2015-07-28 09:13:00,
2015-07-28 05:23:00,71.0,67.0,-100.00,NNE,25,0.0,5.0,85,-99.99,,,-99.99,,2015-07-28 09:23:00,
2015-07-28 05:34:00,71.0,67.0,-100.00,NNW,330,1.0,3.0,85,-99.99,,,-99.99,,2015-07-28 09:34:00,
2015-07-28 05:43:00,70.0,66.0,-100.00,NNW,335,2.0,6.0,87,-99.99,,,-99.99,,2015-07-28 09:43:00,
2015-07-28 05:53:00,70.0,66.0,-100.00,North,5,1.0,3.0,87,-99.99,,,-99.99,,2015-07-28 09:53:00,
2015-07-28 06:03:00,70.0,65.0,-100.00,North,5,2.0,5.0,86,-99.99,,,-99.99,,2015-07-28 10:03:00,
2015-07-28 06:13:00,69.0,65.0,-100.00,NNW,340,1.0,4.0,87,-99.99,,,-99.99,,2015-07-28 10:13:00,
2015-07-28 06:23:00,69.0,65.0,-100.00,NW,315,2.0,-999.0,85,-99.99,,,-99.99,,2015-07-28 10:23:00,
2015-07-28 06:33:00,69.0,64.0,-100.00,NNW,330,4.0,7.0,84,-99.99,,,-99.99,,2015-07-28 10:33:00,
2015-07-28 06:54:00,69.0,64.0,-100.00,NNW,345,4.0,6.0,84,-99.99,,,-99.99,,2015-07-28 10:54:00,
2015-07-28 07:04:00,69.0,64.0,-100.00,North,355,3.0,7.0,83,-99.99,,,-99.99,,2015-07-28 11:04:00,
2015-07-28 07:13:00,69.0,64.0,-100.00,NNW,335,4.0,7.0,83,-99.99,,,-99.99,,2015-07-28 11:13:00,
2015-07-28 07:23:00,69.0,64.0,-100.00,NNW,335,-999.9,-999.0,85,-99.99,,,-99.99,,2015-07-28 11:23:00,
2015-07-28 07:34:00,70.0,64.0,-100.00,NNW,345,4.0,10.0,83,-99.99,,,-99.99,,2015-07-28 11:34:00,
2015-07-28 07:44:00,69.0,64.0,-100.00,North,355,4.0,8.0,84,-99.99,,,-99.99,,2015-07-28 11:44:00,
2015-07-28 07:53:00,70.0,65.0,-100.00,North,355,4.0,7.0,83,-99.99,,,-99.99,,2015-07-28 11:53:00,
2015-07-28 08:03:00,70.0,65.0,-100.00,NNW,340,4.0,8.0,83,-99.99,,,-99.99,,2015-07-28 12:03:00,
2015-07-28 08:13:00,71.0,65.0,-100.00,NNW,345,4.0,9.0,81,-99.99,,,-99.99,,2015-07-28 12:13:00,
2015-07-28 08:23:00,73.0,66.0,-100.00,North,0,4.0,9.0,80,-99.99,,,-99.99,,2015-07-28 12:23:00,
2015-07-28 08:34:00,74.0,66.0,-100.00,North,0,2.0,7.0,76,-99.99,,,-99.99,,2015-07-28 12:34:00,
2015-07-28 08:44:00,75.0,66.0,-100.00,North,10,2.0,5.0,72,-99.99,,,-99.99,,2015-07-28 12:44:00,
2015-07-28 09:04:00,76.0,66.0,-100.00,North,10,2.0,6.0,71,-99.99,,,-99.99,,2015-07-28 13:04:00,
2015-07-28 09:13:00,77.0,67.0,-100.00,NNE,25,1.0,6.0,71,-99.99,,,-99.99,,2015-07-28 13:13:00,
2015-07-28 09:23:00,77.0,67.0,-100.00,NE,50,2.0,6.0,71,-99.99,,,-99.99,,2015-07-28 13:23:00,
2015-07-28 09:33:00,78.0,67.0,-100.00,NE,55,1.0,4.0,69,-99.99,,,-99.99,,2015-07-28 13:33:00,
2015-07-28 09:44:00,79.0,68.0,-100.00,NNE,30,1.0,4.0,70,-99.99,,,-99.99,,2015-07-28 13:44:00,